HK4D-13 Weather Reports


time (UTC)temp
C
wind
direction
speed
KPH
gust
KPH
rain 1hr
cm
rain 24hr
cm
rain mn
cm
humidity
%
barometer
mb
20260507235733 19 10 19.3 0.0 0.00 0.00 0.00 68 1014.0
20260507234730 19 10 19.3 0.0 0.00 0.00 0.00 68 1014.0
20260507233728 19 10 19.3 0.0 0.00 0.00 0.00 68 1014.0
20260507232727 19 10 19.3 0.0 0.00 0.00 0.00 68 1012.0
20260507231727 19 10 19.3 0.0 0.00 0.00 0.00 68 1012.0
20260507230726 19 10 19.3 0.0 0.00 0.00 0.00 68 1012.0
20260507225726 21 10 17.7 0.0 0.00 0.00 0.00 59 1012.0
20260507224725 21 10 17.7 0.0 0.00 0.00 0.00 59 1012.0
20260507223725 21 10 17.7 0.0 0.00 0.00 0.00 57 1012.0
20260507222724 21 0 6.4 0.0 0.00 0.00 0.00 63 1011.0
20260507221722 21 0 6.4 0.0 0.00 0.00 0.00 63 1011.0
20260507220720 21 0 6.4 0.0 0.00 0.00 0.00 63 1011.0
20260507215719 21 60 9.7 0.0 0.00 0.00 0.00 63 1011.0
20260507214719 21 60 9.7 0.0 0.00 0.00 0.00 62 1011.0
20260507213717 22 60 9.7 0.0 0.00 0.00 0.00 60 1010.0
20260507212716 22 60 9.7 0.0 0.00 0.00 0.00 60 1009.0
20260507211716 22 60 9.7 0.0 0.00 0.00 0.00 60 1009.0
20260507210713 22 60 9.7 0.0 0.00 0.00 0.00 60 1009.0
20260507205713 22 110 8.0 0.0 0.00 0.00 0.00 61 1009.0
20260507204712 22 110 8.0 0.0 0.00 0.00 0.00 60 1009.0
20260507203711 22 110 8.0 0.0 0.00 0.00 0.00 59 1009.0
20260507202710 22 110 8.0 0.0 0.00 0.00 0.00 57 1009.0
20260507201709 22 110 8.0 0.0 0.00 0.00 0.00 55 1009.0
20260507200708 22 110 8.0 0.0 0.00 0.00 0.00 55 1009.0
20260507195707 22 110 8.0 0.0 0.00 0.00 0.00 55 1009.0
20260507194706 22 110 8.0 0.0 0.00 0.00 0.00 54 1009.0
20260507193706 22 110 8.0 0.0 0.00 0.00 0.00 52 1009.0
20260507192704 22 110 8.0 0.0 0.00 0.00 0.00 50 1009.0
20260507191704 22 110 8.0 0.0 0.00 0.00 0.00 50 1009.0
20260507190703 22 110 8.0 0.0 0.00 0.00 0.00 50 1009.0
20260507185703 21 110 8.0 0.0 0.00 0.00 0.00 50 1009.0
20260507184701 21 110 8.0 0.0 0.00 0.00 0.00 50 1009.0
20260507183700 21 110 8.0 0.0 0.00 0.00 0.00 50 1010.0
20260507182700 21 110 8.0 0.0 0.00 0.00 0.00 50 1010.0
20260507181659 21 110 8.0 0.0 0.00 0.00 0.00 50 1010.0
20260507180655 21 110 8.0 0.0 0.00 0.00 0.00 50 1010.0
20260507175654 21 0 8.0 0.0 0.00 0.00 0.00 50 1010.0
20260507174652 21 0 8.0 0.0 0.00 0.00 0.00 50 1010.0
20260507173650 21 0 8.0 0.0 0.00 0.00 0.00 50 1011.0
20260507172649 21 0 8.0 0.0 0.00 0.00 0.00 50 1012.0
20260507171648 21 0 8.0 0.0 0.00 0.00 0.00 51 1012.0
20260507170646 21 0 8.0 0.0 0.00 0.00 0.00 52 1012.0
20260507165641 21 0 8.0 0.0 0.00 0.00 0.00 53 1012.0
20260507164640 21 0 8.0 0.0 0.00 0.00 0.00 53 1012.0
20260507163640 21 0 8.0 0.0 0.00 0.00 0.00 54 1013.0
20260507162638 21 0 8.0 0.0 0.00 0.00 0.00 56 1014.0
20260507161636 20 0 8.0 0.0 0.00 0.00 0.00 57 1014.0
20260507160636 20 0 8.0 0.0 0.00 0.00 0.00 58 1014.0
20260507155635 20 0 8.0 0.0 0.00 0.00 0.00 59 1014.0
20260507154635 20 0 8.0 0.0 0.00 0.00 0.00 58 1014.0
20260507153634 20 0 8.0 0.0 0.00 0.00 0.00 66 1014.0
20260507152634 20 0 8.0 0.0 0.00 0.00 0.00 69 1015.0
20260507151633 20 0 8.0 0.0 0.00 0.00 0.00 70 1015.0
20260507150632 20 0 8.0 0.0 0.00 0.00 0.00 70 1015.0
20260507145630 20 0 0.0 0.0 0.00 0.00 0.00 71 1015.0
20260507144629 20 0 0.0 0.0 0.00 0.00 0.00 72 1015.0
20260507143627 17 0 0.0 0.0 0.00 0.00 0.00 75 1015.0
20260507142627 17 0 0.0 0.0 0.00 0.00 0.00 75 1016.0
20260507141626 17 0 0.0 0.0 0.00 0.00 0.00 76 1016.0
20260507140624 17 0 0.0 0.0 0.00 0.00 0.00 75 1016.0
20260507135620 17 0 0.0 0.0 0.00 0.00 0.00 76 1016.0
20260507134620 17 0 0.0 0.0 0.00 0.00 0.00 76 1016.0
20260507133619 13 0 3.2 0.0 0.00 0.00 0.00 10 1016.0
20260507132618 13 0 1.6 0.0 0.00 0.00 0.00 10 1016.0
20260507131617 13 0 1.6 0.0 0.00 0.00 0.00 10 1016.0
20260507130616 13 0 1.6 0.0 0.00 0.00 0.00 10 1016.0
20260507125616 12 200 4.8 0.0 0.00 0.00 0.00 10 1016.0
20260507124615 12 200 4.8 0.0 0.00 0.00 0.00 10 1016.0
20260507123615 12 200 4.8 0.0 0.00 0.00 0.00 99 1016.0
20260507122614 12 200 4.8 0.0 0.00 0.00 0.00 98 1016.0
20260507121614 12 200 4.8 0.0 0.00 0.00 0.00 98 1016.0
20260507120613 12 200 4.8 0.0 0.00 0.00 0.00 98 1016.0
20260507115613 12 0 1.6 0.0 0.00 0.00 0.00 98 1016.0
20260507114612 12 0 1.6 0.0 0.00 0.00 0.00 98 1016.0
20260507113612 12 0 1.6 0.0 0.00 0.00 0.00 98 1016.0
20260507112611 12 0 1.6 0.0 0.00 0.00 0.00 98 1017.0
20260507111611 12 0 1.6 0.0 0.00 0.00 0.00 98 1017.0
20260507110610 12 0 1.6 0.0 0.00 0.00 0.00 98 1017.0
20260507105610 12 0 3.2 0.0 0.00 0.00 0.00 98 1017.0
20260507104609 12 0 3.2 0.0 0.00 0.00 0.00 98 1016.0
20260507103608 12 0 3.2 0.0 0.00 0.00 0.00 98 1016.0
20260507102608 12 0 3.2 0.0 0.00 0.00 0.00 98 1016.0
20260507101607 12 0 3.2 0.0 0.00 0.00 0.00 98 1016.0
20260507100606 12 0 3.2 0.0 0.00 0.00 0.00 98 1016.0
20260507095605 12 0 3.2 0.0 0.00 0.00 0.00 98 1016.0
20260507094605 12 0 3.2 0.0 0.00 0.00 0.00 98 1016.0
20260507093605 12 0 3.2 0.0 0.00 0.00 0.00 98 1016.0
20260507092604 12 0 3.2 0.0 0.00 0.00 0.00 98 1016.0
20260507091603 12 0 3.2 0.0 0.00 0.00 0.00 98 1016.0
20260507090603 12 0 3.2 0.0 0.00 0.00 0.00 98 1016.0
20260507085601 12 0 3.2 0.0 0.00 0.00 0.00 98 1016.0
20260507084559 12 0 3.2 0.0 0.00 0.00 0.00 98 1016.0
20260507083558 12 0 3.2 0.0 0.00 0.00 0.00 98 1016.0
20260507082558 13 350 4.8 0.0 0.00 0.00 0.00 98 1016.0
20260507081558 13 350 4.8 0.0 0.00 0.00 0.00 98 1016.0
20260507080557 13 350 4.8 0.0 0.00 0.00 0.00 97 1016.0
20260507075556 13 350 4.8 0.0 0.00 0.00 0.00 97 1016.0
20260507074555 13 350 4.8 0.0 0.00 0.00 0.00 97 1016.0
20260507073554 15 350 4.8 0.0 0.00 0.00 0.00 97 1016.0
20260507072554 15 350 4.8 0.0 0.00 0.00 0.00 96 1016.0
20260507071553 15 350 4.8 0.0 0.00 0.00 0.00 95 1016.0
20260507070553 15 350 4.8 0.0 0.00 0.00 0.00 93 1016.0
20260507065550 15 350 3.2 0.0 0.00 0.00 0.00 91 1016.0
20260507064548 15 350 3.2 0.0 0.00 0.00 0.00 91 1016.0
20260507063548 15 350 3.2 0.0 0.00 0.00 0.00 91 1016.0
20260507062546 15 350 3.2 0.0 0.00 0.00 0.00 91 1017.0
20260507061545 15 350 3.2 0.0 0.00 0.00 0.00 91 1017.0
20260507060544 15 350 3.2 0.0 0.00 0.00 0.00 91 1017.0
20260507055543 15 10 3.2 0.0 0.00 0.00 0.00 91 1017.0
20260507054543 15 10 3.2 0.0 0.00 0.00 0.00 91 1017.0
20260507053541 15 10 3.2 0.0 0.00 0.00 0.00 90 1017.0
20260507052539 15 10 3.2 0.0 0.00 0.00 0.00 90 1018.0
20260507051538 15 10 3.2 0.0 0.00 0.00 0.00 90 1018.0
20260507050537 15 10 3.2 0.0 0.00 0.00 0.00 89 1018.0
20260507045537 15 0 3.2 0.0 0.00 0.00 0.00 89 1018.0
20260507044536 15 0 3.2 0.0 0.00 0.00 0.00 88 1018.0
20260507043535 15 0 3.2 0.0 0.00 0.00 0.00 87 1018.0
20260507042533 15 0 3.2 0.0 0.00 0.00 0.00 86 1018.0
20260507041527 15 0 3.2 0.0 0.00 0.00 0.00 85 1018.0
20260507040527 15 0 3.2 0.0 0.00 0.00 0.00 83 1018.0
20260507035525 15 0 1.6 0.0 0.00 0.00 0.00 81 1018.0
20260507034524 15 0 1.6 0.0 0.00 0.00 0.00 81 1018.0
20260507033517 15 0 1.6 0.0 0.00 0.00 0.00 82 1018.0
20260507032516 15 0 1.6 0.0 0.00 0.00 0.00 82 1017.0
20260507031516 15 0 1.6 0.0 0.00 0.00 0.00 82 1017.0
20260507030515 15 0 1.6 0.0 0.00 0.00 0.00 82 1017.0
20260507025515 15 0 3.2 0.0 0.00 0.00 0.00 83 1017.0
20260507024514 15 0 3.2 0.0 0.00 0.00 0.00 83 1017.0
20260507023513 16 350 4.8 0.0 0.00 0.00 0.00 82 1017.0
20260507022513 16 350 4.8 0.0 0.00 0.00 0.00 81 1017.0
20260507021512 16 350 4.8 0.0 0.00 0.00 0.00 79 1017.0
20260507020512 16 350 4.8 0.0 0.00 0.00 0.00 77 1017.0
20260507015511 16 350 4.8 0.0 0.00 0.00 0.00 75 1017.0
20260507014511 16 350 4.8 0.0 0.00 0.00 0.00 73 1017.0
20260507013506 16 350 4.8 0.0 0.00 0.00 0.00 71 1017.0
20260507012506 16 350 4.8 0.0 0.00 0.00 0.00 67 1016.0
20260507011504 16 350 4.8 0.0 0.00 0.00 0.00 67 1016.0
20260507010504 16 350 4.8 0.0 0.00 0.00 0.00 63 1016.0
20260507005503 16 0 3.2 0.0 0.00 0.00 0.00 60 1016.0
20260507004502 16 0 3.2 0.0 0.00 0.00 0.00 60 1016.0
20260507003500 16 0 3.2 0.0 0.00 0.00 0.00 60 1016.0
20260507002459 16 0 3.2 0.0 0.00 0.00 0.00 60 1015.0
20260507001457 16 0 3.2 0.0 0.00 0.00 0.00 60 1015.0
20260507000456 16 0 3.2 0.0 0.00 0.00 0.00 60 1015.0